TimeAKST,TemperatureF,Dew PointF,Humidity,Sea Level PressureIn,VisibilityMPH,Wind Direction,Wind SpeedMPH,Gust SpeedMPH,PrecipitationIn,Events,Conditions,WindDirDegrees,DateUTC
12:53 AM,33.1,27.0,78,29.41,10.0,NNE,9.2,-,N/A,,Overcast,20,2013-01-23 09:53:00
1:53 AM,34.0,25.0,70,29.40,10.0,NE,11.5,-,N/A,,Scattered Clouds,40,2013-01-23 10:53:00
3:53 AM,33.1,24.1,70,29.36,10.0,NNE,17.3,-,N/A,,Clear,20,2013-01-23 12:53:00
4:53 AM,32.0,24.1,73,29.36,10.0,NNE,10.4,-,0.01,,Clear,30,2013-01-23 13:53:00
5:53 AM,33.1,23.0,66,29.34,10.0,NNE,13.8,-,N/A,,Clear,30,2013-01-23 14:53:00
6:53 AM,30.9,23.0,72,29.32,10.0,NNE,9.2,-,N/A,,Clear,20,2013-01-23 15:53:00
7:53 AM,30.9,23.0,72,29.31,10.0,NNE,10.4,-,N/A,,Clear,30,2013-01-23 16:53:00
8:53 AM,32.0,24.1,73,29.31,10.0,ENE,5.8,-,N/A,,Clear,60,2013-01-23 17:53:00
9:53 AM,33.1,24.1,70,29.31,10.0,NE,10.4,-,N/A,,Partly Cloudy,40,2013-01-23 18:53:00
10:53 AM,35.1,26.1,70,29.31,10.0,ENE,13.8,-,N/A,,Partly Cloudy,60,2013-01-23 19:53:00
11:53 AM,34.0,26.1,73,29.30,10.0,NE,10.4,-,N/A,,Partly Cloudy,50,2013-01-23 20:53:00
12:53 PM,35.1,26.1,70,29.29,10.0,NE,13.8,-,N/A,,Clear,40,2013-01-23 21:53:00
1:53 PM,34.0,27.0,75,29.28,10.0,North,13.8,-,N/A,,Scattered Clouds,10,2013-01-23 22:53:00
2:53 PM,34.0,28.0,79,29.28,10.0,North,15.0,-,N/A,,Clear,10,2013-01-23 23:53:00
3:53 PM,33.1,28.0,82,29.28,10.0,North,17.3,-,N/A,,Clear,10,2013-01-24 00:53:00
4:53 PM,33.1,28.9,85,29.29,10.0,NNE,19.6,-,N/A,,Clear,20,2013-01-24 01:53:00
5:53 PM,32.0,28.9,88,29.29,10.0,NNE,16.1,-,N/A,,Partly Cloudy,20,2013-01-24 02:53:00
6:53 PM,32.0,28.0,85,29.30,10.0,NNE,15.0,-,N/A,,Clear,30,2013-01-24 03:53:00
7:53 PM,30.9,27.0,85,29.31,10.0,NE,12.7,-,N/A,,Clear,40,2013-01-24 04:53:00
8:53 PM,30.0,26.1,85,29.32,10.0,NE,11.5,-,N/A,,Clear,50,2013-01-24 05:53:00
9:53 PM,28.9,25.0,85,29.33,10.0,North,3.5,-,N/A,,Clear,350,2013-01-24 06:53:00
10:53 PM,28.0,24.1,85,29.34,10.0,NE,10.4,-,N/A,,Clear,40,2013-01-24 07:53:00
11:53 PM,28.9,25.0,85,29.34,10.0,NE,13.8,-,N/A,,Mostly Cloudy,40,2013-01-24 08:53:00